Retour au catalogue

STARLINK-3938

ActifCommunicationsVLEO
NORAD 52566·PAYLOAD·🇺🇸 United States

Lancé May 13, 2022 depuis Vandenberg Space Force Base

Loading…

Prochains Passages (prochaines 24 heures)

TLE

FraisSource: CelesTrak SupGP

Époque: Sep 15, 2026, 01:10 UTC

1 52566C 22051AK  26258.04909722  .00021067  00000+0  60287-3 0  2589
2 52566  53.1583 351.8600 0001125  90.8916  75.7412 15.35382209    11

Suivez STARLINK-3938 en temps réel avec AllMySat

Download on the App Store